Weather History for KHRI - March, 2014

Change the Weather History Date:

Sunday, March 16, 2014

  Actual Average Record
Temperature  
Mean Temperature 56 °F -  
Max Temperature 70 °F 57 °F 73 °F (1941)
Min Temperature 42 °F 35 °F 20 °F (1930)
Degree Days  
Heating Degree Days 10    
Growing Degree Days 6 (Base 50)    
Moisture  
Dew Point 39 °F    
Average Humidity 58    
Maximum Humidity 80    
Minimum Humidity 30    
Precipitation  
Precipitation 0.00 in - - ()
Sea Level Pressure  
Sea Level Pressure 30.03 in    
Wind  
Wind Speed 8 mph (SW)    
Max Wind Speed 18 mph    
Max Gust Speed 24 mph    
Visibility 10 miles    
Events Rain    
Averages and records for this station are not official NWS values.
T = Trace of Precipitation, MM = Missing Value Source: NWS Daily Summary

Daily Weather History Graph

Daily Weather History Graph

Search for Another Location

Airport or City:

Trip Planner

Search our weather history database for the weather conditions in past years. The results will help you decide how hot, cold, wet, or windy it might be!

Date:

Astronomy

Mar. 16, 2014 Rise Set
Actual Time 7:07 AM PDT 7:04 PM PDT
Civil Twilight 6:37 AM PDT 7:34 PM PDT
Nautical Twilight 6:03 AM PDT 8:08 PM PDT
Astronomical Twilight 5:27 AM PDT 8:44 PM PDT
Moon 7:29 PM PDT (3/16) 6:52 AM PDT (3/16)
Length of Visible Light 12h 56m
Length of Day
11h 56m
Full, 100% of the Moon is Illuminated
Mar 16
Full
Mar 23
Last Quarter
Mar 30
New
Apr 7
First Quarter
Apr 15
Full

Hourly Weather History & Observations

Time (PDT) Temp. Windchill Dew Point Humidity Pressure Visibility Wind Dir Wind Speed Gust Speed Precip Events Conditions
12:53 AM 48.9 °F - 37.9 °F 66% 30.23 in 10.0 mi South 6.9 mph - N/A   Clear
1:53 AM 50.0 °F - 39.0 °F 66% 30.22 in 10.0 mi South 4.6 mph - N/A   Clear
2:53 AM 46.0 °F 42.5 °F 37.0 °F 71% 30.22 in 10.0 mi South 6.9 mph - N/A   Clear
3:53 AM 46.0 °F 41.9 °F 37.9 °F 73% 30.20 in 10.0 mi South 8.1 mph - N/A   Clear
4:53 AM 45.0 °F 40.1 °F 37.0 °F 74% 30.19 in 10.0 mi South 9.2 mph - N/A   Clear
5:53 AM 42.1 °F 37.7 °F 36.0 °F 79% 30.19 in 10.0 mi SSE 6.9 mph - N/A   Clear
6:53 AM 43.0 °F 38.8 °F 37.0 °F 80% 30.17 in 10.0 mi South 6.9 mph - N/A   Clear
7:53 AM 46.0 °F 43.1 °F 37.9 °F 73% 30.17 in 10.0 mi SSE 5.8 mph - N/A   Clear
8:53 AM 51.1 °F - 41.0 °F 68% 30.16 in 10.0 mi SSE 3.5 mph - N/A   Clear
9:53 AM 55.0 °F - 42.1 °F 62% 30.15 in 10.0 mi SSE 6.9 mph - N/A   Clear
10:53 AM 59.0 °F - 43.0 °F 55% 30.11 in 10.0 mi South 5.8 mph - N/A   Clear
11:53 AM 66.0 °F - 39.0 °F 37% 30.09 in 10.0 mi West 18.4 mph 24.2 mph N/A   Clear
12:53 PM 68.0 °F - 37.9 °F 33% 30.05 in 10.0 mi WSW 11.5 mph 23.0 mph N/A   Clear
1:53 PM 69.1 °F - 37.9 °F 32% 30.01 in 10.0 mi West 13.8 mph - N/A   Clear
2:53 PM 69.1 °F - 36.0 °F 30% 29.96 in 10.0 mi WNW 10.4 mph - N/A   Clear
3:53 PM 66.9 °F - 39.0 °F 36% 29.94 in 10.0 mi WNW 6.9 mph - N/A   Clear
4:53 PM 64.9 °F - 41.0 °F 42% 29.89 in 10.0 mi WNW 6.9 mph - N/A   Clear
5:53 PM 63.0 °F - 41.0 °F 45% 29.86 in 10.0 mi Calm Calm - N/A   Clear
6:53 PM 57.9 °F - 41.0 °F 53% 29.84 in 10.0 mi SW 6.9 mph - N/A   Clear
7:53 PM 55.9 °F - 41.0 °F 57% 29.82 in 10.0 mi SW 6.9 mph - N/A   Clear
8:53 PM 55.9 °F - 39.0 °F 53% 29.82 in 10.0 mi West 8.1 mph - N/A   Clear
9:53 PM 55.9 °F - 39.0 °F 53% 29.82 in 10.0 mi West 15.0 mph 23.0 mph N/A   Scattered Clouds
10:53 PM 51.1 °F - 43.0 °F 74% 29.82 in 10.0 mi WSW 8.1 mph - 0.00 in Rain Light Rain
11:53 PM 51.1 °F - 42.1 °F 71% 29.80 in 10.0 mi WSW 13.8 mph - 0.00 in   Overcast